TimeMST,TemperatureF,Dew PointF,Humidity,Sea Level PressureIn,VisibilityMPH,Wind Direction,Wind SpeedMPH,Gust SpeedMPH,PrecipitationIn,Events,Conditions,WindDirDegrees,DateUTC
12:15 AM,26.6,23.0,86,30.08,10.0,South,8.1,-,N/A,,Clear,190,2012-11-14 07:15:00
12:35 AM,24.8,21.2,86,30.07,10.0,South,9.2,-,N/A,,Clear,190,2012-11-14 07:35:00
12:55 AM,24.8,19.4,80,30.07,10.0,South,8.1,-,N/A,,Clear,180,2012-11-14 07:55:00
1:15 AM,24.8,21.2,86,30.07,10.0,South,9.2,-,N/A,,Clear,180,2012-11-14 08:15:00
1:35 AM,23.0,19.4,86,30.07,10.0,South,5.8,-,N/A,,Clear,170,2012-11-14 08:35:00
1:55 AM,24.8,21.2,86,30.07,10.0,South,6.9,-,N/A,,Clear,170,2012-11-14 08:55:00
2:15 AM,21.2,19.4,93,30.07,10.0,South,6.9,-,N/A,,Clear,180,2012-11-14 09:15:00
2:35 AM,23.0,19.4,86,30.07,10.0,South,6.9,-,N/A,,Clear,170,2012-11-14 09:35:00
2:55 AM,23.0,19.4,86,30.06,10.0,South,6.9,-,N/A,,Clear,170,2012-11-14 09:55:00
3:15 AM,23.0,21.2,93,30.06,10.0,SSE,5.8,-,N/A,,Clear,160,2012-11-14 10:15:00
3:35 AM,19.4,15.8,86,30.05,10.0,South,6.9,-,N/A,,Clear,170,2012-11-14 10:35:00
3:55 AM,19.4,17.6,93,30.04,10.0,South,9.2,-,N/A,,Clear,180,2012-11-14 10:55:00
4:15 AM,19.4,17.6,93,30.04,10.0,South,6.9,-,N/A,,Clear,170,2012-11-14 11:15:00
4:35 AM,21.2,19.4,93,30.04,10.0,South,9.2,-,N/A,,Clear,170,2012-11-14 11:35:00
4:55 AM,21.2,17.6,86,30.04,10.0,SSE,8.1,-,N/A,,Clear,160,2012-11-14 11:55:00
5:15 AM,21.2,17.6,86,30.03,10.0,SSE,8.1,-,N/A,,Clear,160,2012-11-14 12:15:00
5:35 AM,19.4,17.6,93,30.03,10.0,South,8.1,-,N/A,,Clear,170,2012-11-14 12:35:00
5:55 AM,19.4,17.6,93,30.03,10.0,South,10.4,-,N/A,,Clear,170,2012-11-14 12:55:00
6:15 AM,19.4,15.8,86,30.03,10.0,SSE,6.9,-,N/A,,Clear,160,2012-11-14 13:15:00
6:35 AM,17.6,12.2,79,30.03,10.0,South,8.1,-,N/A,,Clear,180,2012-11-14 13:35:00
6:55 AM,15.8,12.2,86,30.03,10.0,South,4.6,-,N/A,,Clear,190,2012-11-14 13:55:00
7:15 AM,17.6,14.0,86,30.03,10.0,South,10.4,-,N/A,,Clear,180,2012-11-14 14:15:00
7:35 AM,19.4,17.6,93,30.03,10.0,South,10.4,-,N/A,,Clear,180,2012-11-14 14:35:00
7:55 AM,19.4,17.6,93,30.04,10.0,South,10.4,-,N/A,,Clear,170,2012-11-14 14:55:00
8:15 AM,21.2,19.4,93,30.04,10.0,South,9.2,-,N/A,,Clear,180,2012-11-14 15:15:00
8:35 AM,23.0,17.6,80,30.04,10.0,South,9.2,-,N/A,,Clear,190,2012-11-14 15:35:00
8:55 AM,24.8,21.2,86,30.03,10.0,South,11.5,-,N/A,,Clear,170,2012-11-14 15:55:00
9:15 AM,26.6,21.2,80,30.04,10.0,South,8.1,-,N/A,,Clear,170,2012-11-14 16:15:00
9:35 AM,26.6,21.2,80,30.04,10.0,South,9.2,-,N/A,,Clear,180,2012-11-14 16:35:00
9:55 AM,26.6,21.2,80,30.04,10.0,South,6.9,-,N/A,,Clear,180,2012-11-14 16:55:00
10:15 AM,28.4,23.0,80,30.04,10.0,South,6.9,-,N/A,,Clear,170,2012-11-14 17:15:00
10:35 AM,30.2,24.8,80,30.04,10.0,SSE,4.6,-,N/A,,Clear,160,2012-11-14 17:35:00
10:55 AM,30.2,26.6,86,30.04,10.0,South,9.2,-,N/A,,Clear,170,2012-11-14 17:55:00
11:15 AM,32.0,26.6,80,30.03,10.0,South,9.2,-,N/A,,Clear,170,2012-11-14 18:15:00
11:35 AM,33.8,26.6,75,30.02,10.0,South,8.1,-,N/A,,Clear,190,2012-11-14 18:35:00
11:55 AM,35.6,28.4,75,30.02,10.0,SSW,11.5,-,N/A,,Clear,200,2012-11-14 18:55:00
12:15 PM,35.6,26.6,70,30.01,10.0,SSW,12.7,-,N/A,,Clear,200,2012-11-14 19:15:00
12:35 PM,37.4,28.4,70,30.01,10.0,SSW,6.9,-,N/A,,Clear,200,2012-11-14 19:35:00
1:15 PM,37.4,28.4,70,30.01,10.0,South,8.1,-,N/A,,Clear,190,2012-11-14 20:15:00
1:35 PM,37.4,28.4,70,30.01,10.0,South,6.9,-,N/A,,Clear,190,2012-11-14 20:35:00
1:55 PM,35.6,28.4,75,30.00,10.0,SSE,8.1,-,N/A,,Clear,160,2012-11-14 20:55:00
2:15 PM,33.8,28.4,81,30.00,10.0,South,8.1,-,N/A,,Clear,170,2012-11-14 21:15:00
2:35 PM,33.8,28.4,81,30.00,10.0,South,8.1,-,N/A,,Clear,180,2012-11-14 21:35:00
2:55 PM,33.8,28.4,81,30.01,10.0,South,8.1,-,N/A,,Clear,170,2012-11-14 21:55:00
3:15 PM,33.8,26.6,75,30.02,10.0,SSW,4.6,-,N/A,,Clear,200,2012-11-14 22:15:00
3:35 PM,33.8,26.6,75,30.02,10.0,SSW,9.2,-,N/A,,Clear,200,2012-11-14 22:35:00
3:55 PM,35.6,26.6,70,30.02,10.0,SSW,5.8,-,N/A,,Clear,210,2012-11-14 22:55:00
4:15 PM,33.8,26.6,75,30.02,10.0,South,8.1,-,N/A,,Clear,190,2012-11-14 23:15:00
4:35 PM,35.6,26.6,70,30.03,10.0,SW,5.8,-,N/A,,Clear,220,2012-11-14 23:35:00
4:55 PM,33.8,26.6,75,30.03,10.0,West,3.5,-,N/A,,Partly Cloudy,270,2012-11-14 23:55:00
5:15 PM,33.8,26.6,75,30.04,10.0,Calm,Calm,-,N/A,,Mostly Cloudy,0,2012-11-15 00:15:00
5:35 PM,33.8,24.8,70,30.05,10.0,Calm,Calm,-,N/A,,Mostly Cloudy,0,2012-11-15 00:35:00
6:15 PM,32.0,24.8,75,30.06,10.0,Calm,Calm,-,N/A,,Partly Cloudy,0,2012-11-15 01:15:00
6:35 PM,33.8,26.6,75,30.06,10.0,Calm,Calm,-,N/A,,Clear,0,2012-11-15 01:35:00
6:55 PM,30.2,24.8,80,30.06,10.0,West,8.1,-,N/A,,Clear,260,2012-11-15 01:55:00
7:15 PM,30.2,24.8,80,30.07,10.0,West,9.2,-,N/A,,Clear,270,2012-11-15 02:15:00
7:35 PM,30.2,24.8,80,30.08,10.0,West,9.2,-,N/A,,Partly Cloudy,280,2012-11-15 02:35:00
7:55 PM,33.8,28.4,81,30.09,10.0,WNW,11.5,-,N/A,,Mostly Cloudy,290,2012-11-15 02:55:00
8:15 PM,37.4,28.4,70,30.10,10.0,WNW,13.8,-,N/A,,Overcast,300,2012-11-15 03:15:00
8:35 PM,35.6,28.4,75,30.10,10.0,WNW,13.8,-,N/A,,Scattered Clouds,300,2012-11-15 03:35:00
8:55 PM,33.8,26.6,75,30.11,10.0,WNW,16.1,-,N/A,,Clear,300,2012-11-15 03:55:00
9:15 PM,35.6,26.6,70,30.11,10.0,NW,17.3,24.2,N/A,,Clear,310,2012-11-15 04:15:00
9:55 PM,32.0,26.6,80,30.14,10.0,NW,13.8,-,N/A,,Clear,310,2012-11-15 04:55:00
10:35 PM,30.2,24.8,80,30.17,10.0,WNW,4.6,-,N/A,,Clear,300,2012-11-15 05:35:00
10:55 PM,26.6,21.2,80,30.18,10.0,Calm,Calm,-,N/A,,Clear,0,2012-11-15 05:55:00
11:15 PM,26.6,21.2,80,30.19,10.0,Calm,Calm,-,N/A,,Clear,0,2012-11-15 06:15:00
11:35 PM,26.6,21.2,80,30.20,10.0,North,3.5,-,N/A,,Clear,350,2012-11-15 06:35:00
11:55 PM,26.6,23.0,86,30.21,10.0,NW,6.9,-,N/A,,Clear,310,2012-11-15 06:55:00